timestamp,wind_dir_avg,wind_spd_max_dir,wind_spd_avg,wind_spd_gust,battery_voltage,lat,long
2018-06-05 00:00:00+00:00,302.0,309.0,3.51,4.24,,47.59359,-54.27349
2018-06-05 00:10:00+00:00,291.0,294.0,3.33,3.63,,47.59359,-54.27349
2018-06-05 00:20:00+00:00,310.0,311.0,2.73,2.9,,47.59359,-54.27349
2018-06-05 00:30:00+00:00,327.0,333.0,3.17,3.6,,47.59359,-54.27349
2018-06-05 00:40:00+00:00,302.0,305.0,2.83,3.1,,47.59359,-54.27349
2018-06-05 00:50:00+00:00,307.0,308.0,3.15,3.26,,47.59359,-54.27349
2018-06-05 01:00:00+00:00,317.0,316.0,2.13,2.34,,47.59359,-54.27349
2018-06-05 01:10:00+00:00,318.0,317.0,1.32,1.52,,47.59359,-54.27349
2018-06-05 01:20:00+00:00,271.0,267.0,1.85,2.03,,47.59359,-54.27349
2018-06-05 01:30:00+00:00,305.0,309.0,2.74,3.04,,47.59359,-54.27349
2018-06-05 01:40:00+00:00,313.0,313.0,3.08,3.3,,47.59359,-54.27349
2018-06-05 01:50:00+00:00,314.0,315.0,3.09,3.61,,47.59359,-54.27349
2018-06-05 02:00:00+00:00,306.0,308.0,3.03,3.77,,47.59359,-54.27349
2018-06-05 02:10:00+00:00,289.0,290.0,3.48,3.63,,47.59359,-54.27349
2018-06-05 02:20:00+00:00,287.0,290.0,3.66,3.78,,47.59359,-54.27349
2018-06-05 02:30:00+00:00,292.0,296.0,4.31,4.54,,47.59359,-54.27349
2018-06-05 02:40:00+00:00,300.0,305.0,3.83,4.09,,47.59359,-54.27349
2018-06-05 02:50:00+00:00,302.0,301.0,3.76,3.89,,47.59359,-54.27349
2018-06-05 03:00:00+00:00,305.0,306.0,4.07,4.2,,47.59359,-54.27349
2018-06-05 03:10:00+00:00,303.0,304.0,3.34,3.56,,47.59359,-54.27349
2018-06-05 03:20:00+00:00,284.0,283.0,3.08,3.37,,47.59359,-54.27349
2018-06-05 03:30:00+00:00,272.0,272.0,2.67,3.02,,47.59359,-54.27349
2018-06-05 03:40:00+00:00,270.0,273.0,2.01,2.16,,47.59359,-54.27349
2018-06-05 03:50:00+00:00,179.0,187.0,1.77,2.22,,47.59359,-54.27349
2018-06-05 04:00:00+00:00,210.0,210.0,0.69,0.93,,47.59359,-54.27349
2018-06-05 04:10:00+00:00,251.0,253.0,1.35,1.67,,47.59359,-54.27349
2018-06-05 04:20:00+00:00,253.0,285.0,0.91,1.41,,47.59359,-54.27349
2018-06-05 04:30:00+00:00,337.0,325.0,2.74,3.56,,47.59359,-54.27349
2018-06-05 04:40:00+00:00,0.0,6.0,3.21,3.8,,47.59359,-54.27349
2018-06-05 04:50:00+00:00,336.0,335.0,3.26,3.72,,47.59359,-54.27349
2018-06-05 05:00:00+00:00,325.0,325.0,4.04,4.48,,47.59359,-54.27349
2018-06-05 05:10:00+00:00,343.0,342.0,4.3,5.29,,47.59359,-54.27349
2018-06-05 05:20:00+00:00,339.0,337.0,4.5,4.79,,47.59359,-54.27349
2018-06-05 05:30:00+00:00,333.0,334.0,4.94,5.56,,47.59359,-54.27349
2018-06-05 05:40:00+00:00,335.0,343.0,5.49,6.45,,47.59359,-54.27349
2018-06-05 05:50:00+00:00,333.0,339.0,5.16,6.04,,47.59359,-54.27349
2018-06-05 06:00:00+00:00,329.0,330.0,5.06,5.57,,47.59359,-54.27349
2018-06-05 06:10:00+00:00,329.0,330.0,3.9,4.27,,47.59359,-54.27349
2018-06-05 06:20:00+00:00,320.0,318.0,2.96,3.45,,47.59359,-54.27349
2018-06-05 06:30:00+00:00,316.0,317.0,4.14,4.53,,47.59359,-54.27349
2018-06-05 06:40:00+00:00,317.0,320.0,3.71,4.31,,47.59359,-54.27349
2018-06-05 06:50:00+00:00,282.0,288.0,2.91,3.3,,47.59359,-54.27349
2018-06-05 07:00:00+00:00,316.0,312.0,3.34,3.83,,47.59359,-54.27349
2018-06-05 07:10:00+00:00,326.0,330.0,4.21,4.98,,47.59359,-54.27349
2018-06-05 07:20:00+00:00,316.0,317.0,3.8,4.24,,47.59359,-54.27349
2018-06-05 07:30:00+00:00,307.0,309.0,4.17,4.59,,47.59359,-54.27349
2018-06-05 07:40:00+00:00,291.0,288.0,4.19,4.65,,47.59359,-54.27349
2018-06-05 07:50:00+00:00,313.0,311.0,3.02,3.41,,47.59359,-54.27349
2018-06-05 08:00:00+00:00,309.0,311.0,3.99,4.57,,47.59359,-54.27349
2018-06-05 08:10:00+00:00,311.0,310.0,4.63,5.32,,47.59359,-54.27349
2018-06-05 08:20:00+00:00,316.0,319.0,4.0,4.66,,47.59359,-54.27349
2018-06-05 08:30:00+00:00,294.0,297.0,3.75,4.15,,47.59359,-54.27349
2018-06-05 08:40:00+00:00,302.0,302.0,3.08,3.95,,47.59359,-54.27349
2018-06-05 08:50:00+00:00,313.0,315.0,2.64,3.14,,47.59359,-54.27349
2018-06-05 09:00:00+00:00,301.0,320.0,1.19,1.52,,47.59359,-54.27349
2018-06-05 09:10:00+00:00,65.0,132.0,0.14,0.65,,47.59359,-54.27349
2018-06-05 09:20:00+00:00,54.0,65.0,1.24,1.57,,47.59359,-54.27349
2018-06-05 09:30:00+00:00,52.0,52.0,0.77,1.06,,47.59359,-54.27349
2018-06-05 09:40:00+00:00,112.0,117.0,1.0,1.16,,47.59359,-54.27349
2018-06-05 09:50:00+00:00,194.0,216.0,1.66,2.03,,47.59359,-54.27349
2018-06-05 10:00:00+00:00,247.0,223.0,1.04,1.97,,47.59359,-54.27349
2018-06-05 10:10:00+00:00,262.0,269.0,1.3,1.62,,47.59359,-54.27349
2018-06-05 10:20:00+00:00,197.0,188.0,0.54,0.83,,47.59359,-54.27349
2018-06-05 10:30:00+00:00,137.0,141.0,0.67,0.91,,47.59359,-54.27349
2018-06-05 10:40:00+00:00,267.0,291.0,0.52,0.98,,47.59359,-54.27349
2018-06-05 10:50:00+00:00,252.0,252.0,2.16,2.23,,47.59359,-54.27349
2018-06-05 11:00:00+00:00,245.0,245.0,2.08,2.21,,47.59359,-54.27349
2018-06-05 11:10:00+00:00,212.0,211.0,2.97,3.47,,47.59359,-54.27349
2018-06-05 11:20:00+00:00,222.0,222.0,3.17,3.34,,47.59359,-54.27349
2018-06-05 11:30:00+00:00,209.0,209.0,4.53,4.74,,47.59359,-54.27349
2018-06-05 11:40:00+00:00,209.0,210.0,4.26,4.38,,47.59359,-54.27349
2018-06-05 11:50:00+00:00,198.0,201.0,4.67,5.04,,47.59359,-54.27349
2018-06-05 12:00:00+00:00,217.0,217.0,4.32,4.61,,47.59359,-54.27349
2018-06-05 12:10:00+00:00,217.0,218.0,4.61,4.87,,47.59359,-54.27349
2018-06-05 12:20:00+00:00,209.0,211.0,4.49,4.64,,47.59359,-54.27349
2018-06-05 12:30:00+00:00,209.0,210.0,4.26,4.55,,47.59359,-54.27349
2018-06-05 12:40:00+00:00,216.0,217.0,4.49,4.75,,47.59359,-54.27349
2018-06-05 12:50:00+00:00,216.0,218.0,5.45,5.62,,47.59359,-54.27349
2018-06-05 13:00:00+00:00,220.0,221.0,6.11,6.4,,47.59359,-54.27349
2018-06-05 13:10:00+00:00,223.0,223.0,6.45,6.85,,47.59359,-54.27349
2018-06-05 13:20:00+00:00,220.0,219.0,5.89,6.26,,47.59359,-54.27349
2018-06-05 13:30:00+00:00,221.0,222.0,6.24,6.57,,47.59359,-54.27349
2018-06-05 13:40:00+00:00,222.0,224.0,6.96,7.85,,47.59359,-54.27349
2018-06-05 13:50:00+00:00,223.0,225.0,7.35,8.1,,47.59359,-54.27349
2018-06-05 14:00:00+00:00,231.0,231.0,7.78,8.77,,47.59359,-54.27349
2018-06-05 14:10:00+00:00,230.0,233.0,8.62,9.85,,47.59359,-54.27349
2018-06-05 14:20:00+00:00,224.0,225.0,8.11,9.52,,47.59359,-54.27349
2018-06-05 14:30:00+00:00,224.0,224.0,8.94,10.11,,47.59359,-54.27349
2018-06-05 14:40:00+00:00,224.0,223.0,8.32,9.49,,47.59359,-54.27349
2018-06-05 14:50:00+00:00,226.0,228.0,8.77,9.88,,47.59359,-54.27349
2018-06-05 15:00:00+00:00,222.0,222.0,7.52,8.88,,47.59359,-54.27349
2018-06-05 15:10:00+00:00,220.0,226.0,7.91,9.2,,47.59359,-54.27349
2018-06-05 15:20:00+00:00,224.0,225.0,8.33,9.56,,47.59359,-54.27349
2018-06-05 15:30:00+00:00,221.0,222.0,8.0,8.83,,47.59359,-54.27349
2018-06-05 15:40:00+00:00,219.0,223.0,7.19,8.07,,47.59359,-54.27349
2018-06-05 15:50:00+00:00,222.0,223.0,8.26,9.79,,47.59359,-54.27349
2018-06-05 16:00:00+00:00,225.0,229.0,9.14,10.12,,47.59359,-54.27349
2018-06-05 16:10:00+00:00,225.0,228.0,8.18,9.09,,47.59359,-54.27349
2018-06-05 16:20:00+00:00,230.0,237.0,8.1,9.02,,47.59359,-54.27349
2018-06-05 16:30:00+00:00,228.0,231.0,8.71,9.52,,47.59359,-54.27349
2018-06-05 16:40:00+00:00,226.0,225.0,7.19,7.85,,47.59359,-54.27349
2018-06-05 16:50:00+00:00,227.0,225.0,6.82,7.72,,47.59359,-54.27349
2018-06-05 17:00:00+00:00,231.0,231.0,6.9,7.53,,47.59359,-54.27349
2018-06-05 17:10:00+00:00,223.0,222.0,8.07,9.05,,47.59359,-54.27349
2018-06-05 17:20:00+00:00,229.0,232.0,8.29,9.51,,47.59359,-54.27349
2018-06-05 17:30:00+00:00,228.0,228.0,8.83,9.95,,47.59359,-54.27349
2018-06-05 17:40:00+00:00,233.0,231.0,9.11,10.24,,47.59359,-54.27349
2018-06-05 17:50:00+00:00,232.0,236.0,9.24,10.34,,47.59359,-54.27349
2018-06-05 18:00:00+00:00,233.0,233.0,8.24,9.98,,47.59359,-54.27349
2018-06-05 18:10:00+00:00,234.0,235.0,7.87,9.07,,47.59359,-54.27349
2018-06-05 18:20:00+00:00,235.0,236.0,7.49,9.05,,47.59359,-54.27349
2018-06-05 18:30:00+00:00,237.0,240.0,9.13,10.75,,47.59359,-54.27349
2018-06-05 18:40:00+00:00,238.0,239.0,9.96,11.47,,47.59359,-54.27349
2018-06-05 18:50:00+00:00,236.0,235.0,9.03,10.31,,47.59359,-54.27349
2018-06-05 19:00:00+00:00,231.0,230.0,9.59,10.39,,47.59359,-54.27349
2018-06-05 19:10:00+00:00,230.0,227.0,8.88,10.17,,47.59359,-54.27349
2018-06-05 19:20:00+00:00,237.0,234.0,7.08,8.43,,47.59359,-54.27349
2018-06-05 19:30:00+00:00,232.0,232.0,6.31,7.11,,47.59359,-54.27349
2018-06-05 19:40:00+00:00,225.0,229.0,4.85,5.62,,47.59359,-54.27349
2018-06-05 19:50:00+00:00,219.0,224.0,5.32,5.8,,47.59359,-54.27349
2018-06-05 20:00:00+00:00,230.0,232.0,5.07,6.42,,47.59359,-54.27349
2018-06-05 20:10:00+00:00,231.0,231.0,6.59,7.18,,47.59359,-54.27349
2018-06-05 20:20:00+00:00,227.0,225.0,7.02,7.8,,47.59359,-54.27349
2018-06-05 20:30:00+00:00,225.0,223.0,7.93,9.16,,47.59359,-54.27349
2018-06-05 20:40:00+00:00,229.0,229.0,8.08,9.26,,47.59359,-54.27349
2018-06-05 20:50:00+00:00,230.0,230.0,7.18,7.98,,47.59359,-54.27349
2018-06-05 21:00:00+00:00,227.0,222.0,6.34,7.45,,47.59359,-54.27349
2018-06-05 21:10:00+00:00,230.0,230.0,6.36,7.44,,47.59359,-54.27349
2018-06-05 21:20:00+00:00,230.0,223.0,5.17,6.01,,47.59359,-54.27349
2018-06-05 21:30:00+00:00,231.0,232.0,5.34,5.81,,47.59359,-54.27349
2018-06-05 21:40:00+00:00,228.0,231.0,4.95,5.42,,47.59359,-54.27349
2018-06-05 21:50:00+00:00,227.0,229.0,6.0,6.72,,47.59359,-54.27349
2018-06-05 22:00:00+00:00,229.0,227.0,6.6,7.43,,47.59359,-54.27349
2018-06-05 22:10:00+00:00,226.0,230.0,7.21,7.8,,47.59359,-54.27349
2018-06-05 22:20:00+00:00,221.0,224.0,7.1,7.72,,47.59359,-54.27349
2018-06-05 22:30:00+00:00,222.0,222.0,7.42,8.11,,47.59359,-54.27349
2018-06-05 22:40:00+00:00,229.0,235.0,6.74,7.73,,47.59359,-54.27349
2018-06-05 22:50:00+00:00,222.0,224.0,7.64,8.64,,47.59359,-54.27349
2018-06-05 23:00:00+00:00,224.0,221.0,7.33,8.3,,47.59359,-54.27349
2018-06-05 23:10:00+00:00,217.0,216.0,7.77,8.45,,47.59359,-54.27349
2018-06-05 23:20:00+00:00,225.0,225.0,7.42,8.06,,47.59359,-54.27349
2018-06-05 23:30:00+00:00,225.0,222.0,6.77,7.46,,47.59359,-54.27349
2018-06-05 23:40:00+00:00,226.0,231.0,6.85,8.12,,47.59359,-54.27349
2018-06-05 23:50:00+00:00,227.0,230.0,7.94,9.27,,47.59359,-54.27349
